This is the latest recevied weather packets stored in our database for station/object OE2ATN. If no packets are shown the sender has not sent any weather packets the latest 10 day(s).
| Time | Temp. | Humidity | Pressure | Rain* | Wind** | Luminosity | Snow |
|---|---|---|---|---|---|---|---|
| 1777491806 | 8.89° C | 50% | 1029.5 hPa | 0 mm | - | - | - |
| 1777491505 | 9.44° C | 50% | 1029.5 hPa | 0 mm | - | - | - |
| 1777491206 | 9.44° C | 49% | 1029.4 hPa | 0 mm | - | - | - |
| 1777490905 | 10.56° C | 45% | 1029.4 hPa | 0 mm | - | - | - |
| 1777490605 | 10.56° C | 44% | 1029.3 hPa | 0 mm | - | - | - |
| 1777490306 | 10.56° C | 42% | 1029.2 hPa | 0 mm | - | - | - |
| 1777490005 | 11.11° C | 42% | 1029.2 hPa | 0 mm | - | - | - |
| 1777489705 | 11.11° C | 42% | 1028.9 hPa | 0 mm | - | - | - |
| 1777489405 | 11.11° C | 42% | 1028.8 hPa | 0 mm | - | - | - |
| 1777489105 | 11.11° C | 42% | 1028.8 hPa | 0 mm | - | - | - |
| 1777488805 | 11.67° C | 42% | 1028.7 hPa | 0 mm | - | - | - |
| 1777488505 | 11.67° C | 42% | 1028.7 hPa | 0 mm | - | - | - |
| 1777488205 | 11.67° C | 42% | 1028.5 hPa | 0 mm | - | - | - |
| 1777487905 | 11.67° C | 42% | 1028.4 hPa | 0 mm | - | - | - |
| 1777487604 | 11.67° C | 42% | 1028.4 hPa | 0 mm | - | - | - |
| 1777487304 | 11.67° C | 42% | 1028.2 hPa | 0 mm | - | - | - |
| 1777487004 | 11.67° C | 43% | 1028.3 hPa | 0 mm | - | - | - |
| 1777486704 | 11.67° C | 42% | 1028.2 hPa | 0 mm | - | - | - |
| 1777486404 | 11.67° C | 43% | 1028.2 hPa | 0 mm | - | - | - |
| 1777485504 | 12.22° C | 43% | 1028 hPa | 0 mm | - | - | - |
| 1777485204 | 12.22° C | 43% | 1027.9 hPa | 0 mm | - | - | - |
| 1777484903 | 12.22° C | 43% | 1027.8 hPa | 0 mm | - | - | - |
| 1777484604 | 12.22° C | 43% | 1027.6 hPa | 0 mm | - | - | - |
| 1777484306 | 12.22° C | 43% | 1027.8 hPa | 0 mm | - | - | - |
| 1777484003 | 12.78° C | 42% | 1027.4 hPa | 0 mm | - | - | - |
* Rain latest hour (hover to see other rain measurements)
** Current wind speed in m/s (hover to see current wind gust speed)